Regional Weather Roundup
Issued by NWS

Home | Current Version | Previous Version | Graphics & Text | Print | Product List | Glossary On
Versions: 1 2 3 4 5 6 7 8 9 10 11 12 13 14 15 16 17 18 19 20 21 22 23 24 25 26 27 28 29 30 31 32 33 34 35 36 37 38 39 40 41 42 43 44 45 46 47 48 49 50
000
ASUS43 KMKX 050100
RWRWI

WISCONSIN REGIONAL WEATHER ROUNDUP
NATIONAL WEATHER SERVICE MILWAUKEE/SULLIVAN WI
800 PM CDT SAT JUL 04 2015

NOTE: "FAIR" INDICATES FEW OR NO CLOUDS BELOW 12,000 FEET WITH NO
SIGNIFICANT WEATHER AND/OR OBSTRUCTIONS TO VISIBILITY.

WIZ001-002-006>008-014>016-023>028-050200-
NORTHWEST WISCONSIN

CITY           SKY/WX    TMP DP  RH WIND       PRES   REMARKS
SUPERIOR ARPT  CLEAR     62  58  86 NE7       29.90F
ASHLAND        CLEAR     62  59  90 N6        29.92S
HAYWARD        CLEAR     77  63  61 S5        29.91F HAZE
SIREN          CLEAR     79  64  58 S5        29.90S HAZE    HX  81
CUMBERLAND     PTCLDY    75  63  64 S5        29.92S HAZE
RICE LAKE      CLEAR     78  64  62 S6        29.93S HAZE
CHETEK         NOT AVBL
LADYSMITH      CLEAR     78  64  61 S3        29.95S HX  80
EAU CLAIRE     NOT AVBL
MENOMONIE      CLEAR     78  65  65 S5        29.92S HAZE    HX  80
NEW RICHMOND   CLEAR     77  65  66 S8        29.91S HAZE
OSCEOLA        CLEAR     79  66  65 SE6       29.92S HX  81
$$

WIZ003>005-009-010-017-018-050200-
NORTH CENTRAL WISCONSIN

CITY           SKY/WX    TMP DP  RH WIND       PRES   REMARKS
MANITOWISH WTR MOCLDY    75  61  60 CALM      29.95S
ARBOR VITAE    MOCLDY    77  62  60 CALM      29.96S
WOODRUFF       MOCLDY    77  62  60 CALM      29.96S
RHINELANDER    MOCLDY    76  62  62 CALM      29.98R
EAGLE RIVER    MOCLDY    72  57  60 CALM      29.96S
LAND O LAKES   MOCLDY    72  61  68 CALM      29.97S
PHILLIPS       CLEAR     76  62  61 S3        29.94S
TOMAHAWK       MOCLDY    74  64  68 CALM      29.96S
MEDFORD        PTCLDY    76  63  63 S7        29.95S
MERRILL        PTCLDY    77  62  58 SW5       29.96S
$$

WIZ029-030-035-036-043>047-050200-
CENTRAL WISCONSIN

CITY           SKY/WX    TMP DP  RH WIND       PRES   REMARKS
WAUSAU         PTCLDY    77  63  61 CALM      29.94R HAZE
MOSINEE        NOT AVBL
MARSHFIELD     PTCLDY    77  62  59 SW5       29.95S HAZE
STEVENS POINT  PTCLDY    77  61  57 S9        29.96S
WAUPACA        MOCLDY    78  64  61 SE3       29.95S HX  80
WAUTOMA        NOT AVBL
WISC RAPIDS    PTCLDY    77  63  61 SW7       29.96S
CAMP DOUGLAS   NOT AVBL
$$

WIZ011>013-019>022-031-037>040-048>050-050200-
NORTHEAST WISCONSIN

CITY           SKY/WX    TMP DP  RH WIND       PRES   REMARKS
ANTIGO         MOCLDY    73  64  75 S7        29.98R
SHAWANO        MOCLDY    77  65  65 SE6       29.96R
OCONTO         PTCLDY    71  62  73 SE7       29.96S
STURGEON BAY   CLEAR     66  57  72 SE9       30.01R
GREEN BAY      PTCLDY    74  63  68 SE6       29.96S
MANITOWOC      NOT AVBL
APPLETON       MOCLDY    77  61  57 SW6       29.96S
CLINTONVILLE   PTCLDY    77  61  57 S5        29.94S
OSHKOSH        PTCLDY    73  65  75 S3        29.96R
$$

WIZ032>034-041-042-053>061-050200-
SOUTHWEST WISCONSIN

CITY           SKY/WX    TMP DP  RH WIND       PRES   REMARKS
LA CROSSE      CLEAR     79  64  60 S7        29.93S HX  81
SPARTA         CLEAR     78  63  59 S3        29.96R HX  80
VIROQUA        CLEAR     75  65  69 S3        29.98S
BOSCOBEL       CLEAR     77  64  64 CALM      29.96S
PRAIRIE DU CHI CLEAR     77  60  55 CALM      29.96S
PLATTEVILLE    CLEAR     76  62  62 CALM      29.99R
$$

WIZ056-057-062-063-064-067-068-050200-
SOUTH CENTRAL WISCONSIN

CITY           SKY/WX    TMP DP  RH WIND       PRES   REMARKS
REEDSBURG      CLEAR     75  63  66 S3        29.97R
BARABOO/DELLS  CLEAR     75  61  62 SW6       29.97S
LONE ROCK      NOT AVBL
MINERAL POINT  CLEAR     75  61  60 CALM      30.00R
MADISON        PTCLDY    78  61  55 CALM      29.97S HX  80
MIDDLETON      CLEAR     78  60  53 SW3       29.99S
WATERTOWN      CLEAR     76  64  66 S5        29.98R
MONROE         PTCLDY    77  63  61 SW3       29.99S
JANESVILLE     CLEAR     77  63  61 CALM      29.98R
$$

WIZ051-052-058>065-066-070>072-050200-
SOUTHEAST WISCONSIN

CITY           SKY/WX    TMP DP  RH WIND       PRES   REMARKS
MILWAUKEE      MOCLDY    73  58  59 S9        29.98S
WAUKESHA       CLEAR     75  61  60 SW3       29.99S
MILWAUKEE/TIMM CLEAR     77  57  50 CALM      29.98S
RACINE         CLEAR     71  53  52 S10       30.00S
BURLINGTON     PTCLDY    73  65  77 CALM      29.99R
KENOSHA        CLEAR     73  58  59 S6        29.99S
FOND DU LAC    PTCLDY    77  64  64 S5        29.96S
SHEBOYGAN      PTCLDY    71  60  68 S5        29.97S
WEST BEND      PTCLDY    75  61  60 CALM      29.98R
JUNEAU         CLEAR     76  63  64 S5        29.98S
$$

LSZ147-162-050200-
LAKE SUPERIOR

STATION/POSITION TIME  TEMP    WIND        PRES    WAVE
                       AIR SEA DIR/SP/G            HT/PER
                 (UTC) (F)     (DEG/KT/KT) (MB)    (FT/S)
W MID LAKE BUOY  2350   44 39   70/  8/ 10 1013.7F   0
DEVILS ISLAND    0000   58      70/ 10/ 12 1013.5F
SAXON HARBOR     0040   67        CALM     1012.5F
$$

LMZ867-665-643>646-050200-
LAKE MICHIGAN

STATION/POSITION TIME  TEMP    WIND        PRES    WAVE
                       AIR SEA DIR/SP/G            HT/PER
                 (UTC) (F)     (DEG/KT/KT) (MB)    (FT/S)
CHAMBERS ISLAND  0000   71     120/  5/  7 1014.9S
S GREEN BAY BUOY 0030   71 70  150/ 10/ 12 1016.1R
N MID LAKE BUOY  2350   61 50  180/  4/  4 1015.1F   0
NORTHPORT PIER   0000   67     150/  5/  6 1014.9F
SISTER BAY       0014   69     150/  7/  9   N/A
ALGOMA LAKESHORE 0011             CALM       N/A
KEWAUNEE LAKESHO 0000   62     170/  2/  5 1014.7F
SHEBOYGAN LAKESH 0000   63     170/  9/ 10 1015.3F
PORT WASHINGTON  0000   68     170/  3/  4 1015.9S
ATWATER BUOY     0000   65 61  160/ 10/ 12 1016.3F
MILWAUKEE LAKESH 0000   66     140/ 11/ 13   N/A
KENOSHA   LAKESH 0000   69     180/ 10/ 11 1014.9F
$$

TC  - TEMPERATURE IN CELSIUS
VSB - VISIBILITY IN STATUTE MILES
WCI - WIND CHILL INDEX
HX  - HEAT INDEX




USA.gov is the U.S. government's official web portal to all federal, state and local government web resources and services.